Weather in Chuhynka

Ukraine / Luhansk Region     48°55′25″N   39°39′02″E
temp.,
°C
wind,
m/s
gust,
m/s
humid.,
%
clouds,
%
prec.,
mm/h
press.,
hPa
HPBL,
m
7 may, fri
fri700:00+13sse397399 0.0 1011217
03:00+12s348389 0.1 101154
06:00+12wsw2482100 0.0 1011139
09:00+15nw5574100 0.0 1013871
12:00+16nw566789 0.8 10141200
15:00+17nw354986 0.8 10151741
18:00+15ne576013 0.0 1015366
21:00+11e35685 0.0 101769
8 may, sat
sat800:00+10ese3971100 0.0 1017147
03:00+9se3977100 0.0 1016181
06:00+10se41180100 0.0 1015295
09:00+15s6871100 0.0 1014644
12:00+19ssw7958100 0.1 10121301
15:00+19ssw71059100 0.1 10111284
18:00+19ssw51060100 0.0 1010681
21:00+13w348559 0.0 101072
9 may, sun
sun900:00+12wnw5992100 0.0 1010395
03:00+9nnw71280100 0.1 1012659
06:00+8nnw6992100 3.3 1012910
09:00+7nnw6983100 8.4 1014852
12:00+10nnw7968100 0.1 10151415
15:00+10nnw81167100 0.2 10171428
18:00+9nw61167100 0.1 10181073
21:00+8nnw61271100 0.1 1020692
10 may, mon
mon1000:00+6nw612816 0.0 1020577
03:00+6nw71377100 0.0 1019668
06:00+7nnw81376100 0.0 1019997
09:00+7nnw81285100 1.0 10181002
12:00+6nnw61291100 4.8 10161022
15:00+7nnw61295100 7.7 1014669
18:00+10n4997100 3.1 1011401
21:00+7ene5896100 3.1 1015485
11 may, tue
tue1100:00+7ene2596100 0.3 1015279
03:00+6e2496100 0.9 1016242
06:00+6ese3795100 2.8 1016425
09:00+9e798079 3.8 1018968
12:00+9ese8128150 0.4 10201162
15:00+7ese71187100 0.6 10231046
18:00+10e587645 0.0 1023541
21:00+9nne51179100 0.0 1022249